589  
ASUS46 KPDT 270025  
RWRPDT  
PENDLETON REGIONAL WEATHER ROUNDUP  
NATIONAL WEATHER SERVICE PENDLETON OREGON  
500 PM PDT FRI MAY 26 2017  
 
NOTE: FAIR INDICATES FEW OR NO CLOUDS BELOW 12,000 FEET WITH NO  
SIGNIFICANT WEATHER AND/OR S TO VISIBILITY
.  
 
# INDICATES UNOFFICIAL STATION AND DATA  
 
WAZ520-270110-  
EAST SLOPES OF WASHINGTON CASCADES  
 
CITY SKY/WX TMP DP RH WIND PRES REMARKS
 
#BULLFROG N/A 77 38 24 W5 N/A  
#CLE ELUM HS N/A 78 36 22 SW2 29.88  
#CLE ELUM LAKE N/A 75 40 28 CALM 29.96S  
#EASTON DOT N/A 72 40 31 N2 N/A  
#ELK HTS DOT N/A 73 73 100 CALM N/A  
#GLENWOOD N/A 76 50 40 S2 29.91  
#NELSON 3SW N/A 71 42 35 CALM 30.09  
#NILE N/A 73 44 35 CALM 29.17  
#TEANAWAY 4NE N/A 74 48 40 CALM N/A  
#TROUT LAKE 1NE N/A 76 48 37 CALM 29.90  
#TROUT LAKE 1E N/A 76 46 34 CALM 29.97  

 
 
WAZ521-270110-  
SIMCOE HIGHLANDS  
 
CITY SKY/WX TMP DP RH WIND PRES REMARKS
 
#BICKLETON HS N/A 71 38 30 S3 29.96S  
#CENTERVILLE 1SWN/A 75 44 33 SW2 29.89  
#GOLDENDALE 1NE N/A 75 32 21 SE2 N/A  
#GOLDENDALE 4W N/A 79 18 10 S5 29.98F  
#GOODNOE HILLS N/A 82 40 22 W3 N/A  
#LYLE 6NE N/A 75 48 38 SW6 29.88  
#PITT 4SE N/A 73 43 34 NW1 29.94  

 
 
WAZ026-270110-  
KITTITAS VALLEY  
 
CITY SKY/WX TMP DP RH WIND PRES REMARKS
 
ELLENSBURG AP PTCLDY 82 41 23 E6 29.93  
6HR MIN TEMP: 69; 6HR MAX TEMP: 82;  
 
YTC-OPS AREA SUNNY 69 31 24 S7 30.00  
6HR MIN TEMP: 63; 6HR MAX TEMP: 72;  
 
#ELLENSBURG CWU N/A 79 42 27 E1 29.83  
#ELLENSBURG 3NE N/A 75 45 34 CALM 28.01  
#KITTITAS 4N N/A 78 47 34 SE1 29.95S  
#KITTITAS 3S N/A 77 48 36 CALM 29.88  
#MANASTASH RDG N/A 77 77 100 N3 N/A  
#ROCKY CYN DOT N/A 75 41 29 SE5 N/A  
#RYEGRASS DOT N/A 72 40 31 SE3 N/A  
#THORP 6N N/A 75 43 32 S1 29.91  

 
 
WAZ027-270110-  
YAKIMA VALLEY  
 
CITY SKY/WX TMP DP RH WIND PRES REMARKS
 
SUNNYSIDE AP SUNNY 78 47 34 CALM 29.92S  
YAKIMA AIRPORT PTCLDY 82 39 22 SW8 29.92  
6HR MIN TEMP: 73; 6HR MAX TEMP: 84;  
 
YAKIMA-VAGABOND MOCLDY 79 38 23 SW8 29.90  
6HR MIN TEMP: 70; 6HR MAX TEMP: 80;  
 
#DONALD 2NE N/A 82 20 10 SE6 28.77S  
#GRANDVIEW N/A 78 37 23 SE2 29.92S  
#MABTON N/A 80 43 27 E1 29.91  
#MOXEE 2E N/A 78 N/A N/A S6 29.90S  
#NACHES 2SW N/A 80 46 30 SE1 29.96  
#OUTLOOK DOT N/A 79 38 23 CALM 29.89  
#PARKER DOT N/A 82 36 19 NW5 29.91  
#TERRACE HTS N/A 79 43 28 S1 29.86  
#TOPPENISH N/A 79 40 25 E3 29.81  
#I82 S UMTANUM RN/A 77 41 28 S7 N/A  
#UNION GAP DOT N/A 81 37 21 SE2 29.93  
#WEST VALLEY N/A 78 39 25 S5 29.87  
#W YAKIMA N/A 80 42 26 S2 29.89S  
#WHITE SWAN 5E N/A 79 43 28 CALM 29.89  
#WILEY CITY 3W N/A 81 31 16 CALM 29.90  
#ZILLAH DOT N/A 81 36 20 SE3 N/A  

 
 
WAZ028-270110-  
LOWER COLUMBIA BASIN...WASHINGTON  
 
CITY SKY/WX TMP DP RH WIND PRES REMARKS
 
HANFORD MOSUNNY 82 34 18 N7 29.90  
PASCO SUNNY 82 39 22 N6 29.92  
6HR MIN TEMP: 70; 6HR MAX TEMP: 84;  
 
PROSSER AWOS N/A 79 39 24 NW3 29.95S  
RICHLAND AWOS SUNNY 83 42 24 E7 29.91S  
#BENTON CITY N/A 78 44 30 CALM 29.81  
#CONNELL 5N N/A 81 40 23 CALM 29.91  
#CONNELL 5NW N/A 78 47 34 NW1 29.86  
#ELTOPIA 6NW N/A 79 46 31 CALM 28.90  
#KAHLOTUS N/A 74 41 30 N7 29.91  
#KENNEWICK 3S N/A 78 44 30 CALM 29.91  
#PATERSON N/A 79 42 27 SW3 29.89  
#PROSSER DOT N/A 82 34 18 CALM 29.93  
#SAGEMOOR 2W N/A 78 46 32 CALM 29.77  
#TOUCHET 2S N/A 77 52 42 NW2 29.89  
#WEST PASCO N/A 83 46 27 E2 29.88  

 
 
WAZ029-270110-  
FOOTHILLS OF THE BLUES...WASHINGTON  
 
CITY SKY/WX TMP DP RH WIND PRES REMARKS
 
WALLA WALLA AP SUNNY 76 45 33 SW7 29.95  
6HR MIN TEMP: 66; 6HR MAX TEMP: 77;  
 
#CLYDE 6NW N/A 75 44 33 W5 29.90  
#DAYTON SCHOOL N/A 74 39 28 SW2 29.97  
#LOWDEN 2SE N/A 78 47 34 W3 29.89  
#PLEASANT VIEW 1N/A 73 44 35 CALM 29.95  
#PRESCOTT N/A 76 47 36 CALM 29.91  
#WHITMAN COLLEGEN/A 77 48 36 W3 29.97  
#WAITSBURG 6SSE N/A 73 41 31 W3 29.94S  
#WAITSBURG 8N N/A 80 N/A N/A S7 29.99S  
#WALLA WALLA 5E N/A 76 51 42 CALM N/A  
#WHITMAN MISSIONN/A 77 48 36 SW1 29.93  

 
 
WAZ030-270110-  
BLUE MOUNTAINS...WASHINGTON  
 
CITY SKY/WX TMP DP RH WIND PRES REMARKS
 
#DIXIE 5SE N/A 65 43 45 NW7 29.94  

 
 
ORZ009-041-WAZ024-270110-  
COLUMBIA RIVER GORGE  
 
CITY SKY/WX TMP DP RH WIND PRES REMARKS
 
HOOD RIVER AP SUNNY 81 41 24 CALM 29.91S  
THE DALLES AP SUNNY 85 38 19 VRB3 29.90  
6HR MIN TEMP: 71; 6HR MAX TEMP: 86;  
 
#ARLINGTON AIRPON/A 78 42 28 E5 29.92R  
#CELILO DOT N/A 87 47 25 NW1 N/A  
#LYLE N/A 83 44 25 S7 29.89  
#MARYHILL N/A 81 36 20 CALM N/A  
#MURDOCK N/A 83 47 28 W3 29.85S  
#RUFUS DOT N/A 82 39 22 NE3 N/A  
#SMITHVILLE N/A 83 43 24 SE3 29.83S  
 

 
 
ORZ510-270110-  
NORTH CENTRAL OREGON  
 
CITY SKY/WX TMP DP RH WIND PRES REMARKS
 
#ANTELOPE N/A 71 41 34 CALM 29.80  
#CHENOWITH 1W N/A 51 35 54 NW14 N/A  
#DUFUR N/A 77 41 28 NE5 29.88  
#DUFUR 9E N/A 72 41 33 NE7 29.96  
#GRASS VALLEY 1SN/A 74 38 27 E2 30.00  
#KENT DOT N/A 74 34 23 W3 N/A  
#MAUPIN SCHOOL N/A 79 44 29 CALM 29.96  
#MORO SCHOOL N/A 76 45 33 N2 30.04  
#SHANIKO 5WSW N/A 68 30 24 N8 N/A  
#SHANIKO 4NW N/A 68 33 27 N5 30.02  
#TYGH VALLEY 2NEN/A 79 42 27 N1 29.90  
#WAPANITIA AIRPON/A 75 38 26 N1 29.93  
#WASCO 5NE N/A 77 45 32 CALM 29.92  

 
 
ORZ511-270110-  
CENTRAL OREGON  
 
CITY SKY/WX TMP DP RH WIND PRES REMARKS
 
BEND AIRPORT SUNNY 70 36 29 N6 29.95S  
MADRAS AIRPORT SUNNY 72 34 25 N5 30.00S  
PRINEVILLE AP SUNNY 72 34 25 MISG 29.99S  
REDMOND AIRPORT SUNNY 73 32 22 N12 29.99  
6HR MIN TEMP: 63; 6HR MAX TEMP: 74;  
 
#ASHWOOD SCHOOL N/A 73 36 26 CALM 29.94  
#BEND 1SW N/A 68 34 28 N1 N/A  
#BEND-AWBREY N/A 77 36 23 N3 29.92S  
#BEND-KIM LN N/A 73 36 26 N5 29.87  
#CULVER N/A 72 39 30 NW2 29.85  
#CULVER 8W N/A 74 20 13 CALM 30.00S  
#MADRAS 4S N/A 72 12 10 N8 N/A  
#POWELL BUTTE N/A 70 32 24 N7 29.96S  
#PRINEVILLE N/A 74 37 26 W1 29.99  
#PRINEVILLE 3N N/A 72 43 35 NW12 29.91S  
#WARM SPRINGS N/A 79 42 27 CALM 29.77  
 

 
 
 
ORZ509-270110-  
EAST SLOPES OF OREGON CASCADES  
 
CITY SKY/WX TMP DP RH WIND PRES REMARKS
 
SISTERS AWOS N/A 70 32 24 E6 29.97  
#CAMP SHERMAN N/A 74 33 22 CALM 29.99  
#LA PINE 4SW N/A 73 28 19 NW6 30.03  
#LA PINE 4NW N/A 69 35 28 CALM 29.98  
#LAVA BUTTE DOT N/A 69 32 25 W3 N/A  
#SISTERS 3N N/A 72 35 26 NE3 30.00S  
#SUNRIVER N/A 70 31 23 SW3 29.95S  
#TUMALO 3W N/A 69 34 27 N6 29.80  
#WANOGA BUTTE D N/A 58 28 32 E6 N/A  
 

 
 
ORZ044-270110-  
LOWER COLUMBIA BASIN...OREGON  
 
CITY SKY/WX TMP DP RH WIND PRES REMARKS
 
HERMISTON SUNNY 80 31 17 VRB3 29.92  
6HR MIN TEMP: 69; 6HR MAX TEMP: 81;  
 
#BOARDMAN SCHOOLN/A 79 37 22 N2 29.90  
#BOARDMAN 8SW N/A 79 45 30 NE3 29.91S  
#ECHO 8SW N/A 79 45 30 CALM 29.94  
#IONE SCHOOL N/A 78 36 22 CALM 29.92  
#UMATILLA N/A 81 42 25 S3 29.83  

 
 
ORZ507-270110-  
NORTHERN FOOTHILLS OF THE BLUES  
 
CITY SKY/WX TMP DP RH WIND PRES REMARKS
 
PENDLETON AIRPT SUNNY 74 42 32 W6 29.95  
6HR MIN TEMP: 66; 6HR MAX TEMP: 75;  
 
#ADAMS 3WNW N/A 73 47 40 NE6 29.93  
#ATHENA N/A 72 40 31 NE5 29.97  
#CAYUSE N/A 73 46 38 NE2 29.92  
#HELIX 3N N/A 71 42 35 N7 29.94  
#HOLDMAN 5SE N/A 75 42 31 W1 29.94  
#HOLDMAN 6E N/A 74 43 33 W5 29.74  
#M-F FERNDALE N/A 85 46 26 CALM 29.91  
#M-FREEWATER 5SEN/A 76 49 39 CALM 29.95  
#PENDLETON DNTN N/A 77 41 28 CALM 29.92  
#PDT AQUATIC CTRN/A 79 46 31 CALM 29.96  
#PDT SUNRIDGE N/A 76 44 32 W3 29.96  
#PENDLETON 7NW N/A 75 48 38 CALM 25.66  
#PILOT ROCK 1S N/A 73 41 31 CALM 29.97  
#PILOT ROCK N/A 75 43 32 CALM 29.99R  
#TUTUILLA N/A 76 49 39 CALM 29.93  
#UMAPINE 2E N/A 78 49 36 CALM 29.91  
#WESTON SCHOOL N/A 70 34 26 E1 29.88  
 

 
 
ORZ508-270110-  
SOUTHERN FOOTHILLS OF THE BLUES  
 
CITY SKY/WX TMP DP RH WIND PRES REMARKS
 
LEXINGTON SUNNY 77 37 24 N9 29.99S  
#AJAX N/A 74 32 21 S5 30.12  
#CONDON 5W N/A 69 34 27 E2 30.00  
#FOSSIL SCHOOL N/A 72 37 28 E5 29.93  
#HEPPNER EOC N/A 75 40 28 N2 29.87  
#HEPPNER 4NE N/A 68 39 35 E1 29.95  
#LEXINGTON 2SE N/A 78 38 24 CALM 29.92  
#MIKKALO N/A 77 35 22 N3 30.06  
#OLEX 4N N/A 78 38 24 N1 29.92  
#RUGGS 5NE N/A 76 39 26 N2 30.17  
#RUGGS 2SW N/A 70 38 31 CALM 29.97  
 

 
 
ORZ502-503-270110-  
BLUE MOUNTAINS  
 
CITY SKY/WX TMP DP RH WIND PRES REMARKS
 
MEACHAM PTCLDY 65 34 31 VRB7 30.03  
6HR MIN TEMP: 58; 6HR MAX TEMP: 66;  
 
#GRANITE N/A 64 34 33 N3 29.68S  
#GREENHORN 9SW N/A 68 39 35 NW3 29.98  
#HARDMAN 10S N/A 66 37 34 N2 30.08S  
#LONG CREEK HS N/A 67 36 32 CALM N/A  
#PIKES PEAK N/A 63 45 52 CALM 27.99  
#SUMMERVILLE 5NWN/A 69 38 32 NW7 30.01S  
#TOLLGATE N/A 56 40 55 SW1 29.92  
#TROY SCHOOL N/A 73 47 40 CALM 29.75  
#UKIAH N/A 65 41 41 N7 29.89  
#WESTON 4E N/A 67 46 47 N1 29.93  

 
 
ORZ505-270110-  
JOHN DAY BASIN  
 
CITY SKY/WX TMP DP RH WIND PRES REMARKS
 
JOHN DAY MOCLDY 72 35 26 NW12 29.99S  
#ANTELOPE 9ESE N/A 78 38 24 N2 N/A  
#DAYVILLE SCHOOLN/A 75 35 23 N7 29.92  
#MITCHELL N/A 70 44 39 CALM 30.13  
#MITCHELL 8NW N/A 69 35 28 CALM 29.95  
#MONUMENT HS N/A 77 36 23 S1 29.90  
#MT. VERNON 5SE N/A 68 35 29 NW5 29.95  
#SPRAY SCHOOL N/A 78 N/A N/A CALM N/A  

 
 
ORZ506-270110-  
OCHOCO AND JOHN DAY HIGHLANDS  
 
CITY SKY/WX TMP DP RH WIND PRES REMARKS
 
#HORSE RIDGE DO N/A 68 30 24 N8 N/A  
#IZEE 6NW N/A 72 35 26 N6 N/A  
#PAULINA ODOT N/A 69 29 22 N2 N/A  
#PINE MTN OBS N/A 56 32 40 N2 N/A  
#PRAIRIE CITY N/A 72 41 33 CALM 30.11  
#SENECA N/A 64 N/A N/A VRB6 N/A  

 
 
ORZ049-270110-  
GRANDE RONDE VALLEY  
 
CITY SKY/WX TMP DP RH WIND PRES REMARKS
 
LA GRANDE PTCLDY 70 41 35 N8 29.98S  
#COVE N/A 66 51 58 E5 30.01  
#COVE SCHOOL N/A 65 48 54 CALM 30.00  
#COVE 6NW N/A 68 43 40 N7 29.94  
#ELGIN 3N N/A 69 45 42 NE1 29.96S  
#ELGIN 1E N/A 67 44 43 CALM N/A  
#IMBLER SCHOOL N/A 66 42 42 CALM 29.94  
#ISLAND CITY 4N N/A 82 58 44 CALM 29.91  
#LA GRANDE-LEFFEN/A 72 44 37 N5 29.98S  
#UNION 1S N/A 70 43 38 N8 29.92  

 
 
ORZ050-270110-  
WALLOWA COUNTY  
 
CITY SKY/WX TMP DP RH WIND PRES REMARKS
 
JOSEPH AIRPORT MOCLDY 63 36 36 NW3 30.02  
#ENTERPRISE HS N/A 63 42 46 NW9 29.82  
#IMNAHA SCHOOL N/A 73 38 28 W3 29.92  
#IMNAHA 10S N/A 70 40 34 NE3 29.94  
#JOSEPH 3N N/A 63 39 41 W9 30.03  
#JOSEPH 3W N/A 61 42 50 CALM 29.88R  
#LOSTINE N/A 68 42 39 E1 29.74  
#LOSTINE 3SE N/A 68 39 35 N2 30.02  
#MT HOWARD 8000 N/A 44 34 68 NW6 30.13  
#PROMISE 1S N/A 63 44 50 NW2 30.04  
#WALLOWA LAKE N/A 67 40 37 N2 30.03  
#WALLOWA SCHOOL N/A 65 43 45 W1 29.95  
 

 
 
CLICK HERE TO GO TO PREVIOUS BULLETINS.

The Nexlab OR Page
The Nexlab WA Page Main Text Page